Satellite: AUBIESAT
Catalog number: 37854
Epoch time: 13003.33760678
Element set: 387
Inclination: 101.7097 deg
RA of node: 141.4295 deg
Eccentricity: 0.0241234
Arg of perigee: 138.6649 deg
Mean anomaly: 223.3100 deg
Mean motion: 14.82584713 rev/day
Decay rate: 6.149e-05 rev/day^2
Epoch rev: 6402
Checksum: 290
Satellite: HRBE
Catalog number: 37855
Epoch time: 13002.90431150
Element set: 383
Inclination: 101.7100 deg
RA of node: 140.6659 deg
Eccentricity: 0.0241363
Arg of perigee: 140.0723 deg
Mean anomaly: 221.8506 deg
Mean motion: 14.82325202 rev/day
Decay rate: 5.969e-05 rev/day^2
Epoch rev: 6395
Checksum: 261
Satellite: RS-39
Catalog number: 38051
Epoch time: 13003.82353255
Element set: 43
Inclination: 051.6388 deg
RA of node: 281.0722 deg
Eccentricity: 0.0013406
Arg of perigee: 040.3019 deg
Mean anomaly: 025.6669 deg
Mean motion: 15.28351420 rev/day
Decay rate: 9.604e-05 rev/day^2
Epoch rev: 5261
Checksum: 267
Satellite: E-STAR
Catalog number: 38079
Epoch time: 13003.67348717
Element set: 773
Inclination: 069.4805 deg
RA of node: 212.2939 deg
Eccentricity: 0.0675403
Arg of perigee: 351.6631 deg
Mean anomaly: 007.3701 deg
Mean motion: 14.31428231 rev/day
Decay rate: 3.7445e-04 rev/day^2
Epoch rev: 4609
Checksum: 301
Satellite: GOLIAT
Catalog number: 38085
Epoch time: 13003.69022442
Element set: 738
Inclination: 069.4813 deg
RA of node: 213.3688 deg
Eccentricity: 0.0681775
Arg of perigee: 352.2505 deg
Mean anomaly: 006.8451 deg
Mean motion: 14.29944484 rev/day
Decay rate: 3.4824e-04 rev/day^2
Epoch rev: 4606
Checksum: 313
Satellite: HORYU-2
Catalog number: 38340
Epoch time: 13003.86847000
Element set: 305
Inclination: 098.1987 deg
RA of node: 310.3301 deg
Eccentricity: 0.0013855
Arg of perigee: 055.3885 deg
Mean anomaly: 304.8598 deg
Mean motion: 14.70511680 rev/day
Decay rate: 9.03e-06 rev/day^2
Epoch rev: 3396
Checksum: 290
Satellite: RS-40
Catalog number: 38736
Epoch time: 13002.73659152
Element set: 150
Inclination: 082.4781 deg
RA of node: 258.2909 deg
Eccentricity: 0.0018905
Arg of perigee: 333.2716 deg
Mean anomaly: 026.7392 deg
Mean motion: 12.42649326 rev/day
Decay rate: 1.0e-07 rev/day^2
Epoch rev: 1969
Checksum: 299
Satellite: PROITERES
Catalog number: 38756
Epoch time: 13003.78336627
Element set: 379
Inclination: 098.2725 deg
RA of node: 077.7006 deg
Eccentricity: 0.0011508
Arg of perigee: 271.2379 deg
Mean anomaly: 088.7512 deg
Mean motion: 14.74029505 rev/day
Decay rate: 4.02e-06 rev/day^2
Epoch rev: 1717
Checksum: 302
Satellite: AENEAS
Catalog number: 38760
Epoch time: 12362.45618703
Element set: 0026
Inclination: 064.6739 deg
RA of node: 080.1262 deg
Eccentricity: 0.0216494
Arg of perigee: 260.4485 deg
Mean anomaly: 097.2099 deg
Mean motion: 14.79915610 rev/day
Decay rate: 3.317e-05 rev/day^2
Epoch rev: 00353
Checksum: 301
Satellite: CSSWE-D
Catalog number: 38761
Epoch time: 12362.45838096
Element set: 0024
Inclination: 064.6742 deg
RA of node: 080.1381 deg
Eccentricity: 0.0218126
Arg of perigee: 260.5019 deg
Mean anomaly: 097.1363 deg
Mean motion: 14.79742253 rev/day
Decay rate: 2.744e-05 rev/day^2
Epoch rev: 00355
Checksum: 293
Satellite: CXBN-E
Catalog number: 38762
Epoch time: 12362.51998902
Element set: 0023
Inclination: 064.6756 deg
RA of node: 079.9149 deg
Eccentricity: 0.0217771
Arg of perigee: 260.2501 deg
Mean anomaly: 097.3925 deg
Mean motion: 14.79877027 rev/day
Decay rate: 3.134e-05 rev/day^2
Epoch rev: 00363
Checksum: 321
Satellite: OBJECT F
Catalog number: 38763
Epoch time: 12362.45521558
Element set: 0022
Inclination: 064.6742 deg
RA of node: 080.1199 deg
Eccentricity: 0.0218533
Arg of perigee: 260.5600 deg
Mean anomaly: 097.0729 deg
Mean motion: 14.79766060 rev/day
Decay rate: 2.532e-05 rev/day^2
Epoch rev: 00356
Checksum: 292
Satellite: CINEMA-G
Catalog number: 38764
Epoch time: 12362.52098107
Element set: 0021
Inclination: 064.6735 deg
RA of node: 079.9005 deg
Eccentricity: 0.0218157
Arg of perigee: 260.5336 deg
Mean anomaly: 097.1019 deg
Mean motion: 14.79809930 rev/day
Decay rate: 2.492e-05 rev/day^2
Epoch rev: 00353
Checksum: 301
Satellite: CP5
Catalog number: 38765
Epoch time: 12362.51469427
Element set: 0024
Inclination: 064.6724 deg
RA of node: 079.8680 deg
Eccentricity: 0.0217159
Arg of perigee: 260.1766 deg
Mean anomaly: 097.4748 deg
Mean motion: 14.79969424 rev/day
Decay rate: 3.425e-05 rev/day^2
Epoch rev: 00353
Checksum: 339
Satellite: RAIKO
Catalog number: 38852
Epoch time: 13003.85165722
Element set: 97
Inclination: 051.6470 deg
RA of node: 202.5976 deg
Eccentricity: 0.0017573
Arg of perigee: 114.1872 deg
Mean anomaly: 246.0962 deg
Mean motion: 15.57641913 rev/day
Decay rate: 2.8751e-04 rev/day^2
Epoch rev: 1412
Checksum: 295
Satellite: FITSAT 1
Catalog number: 38853
Epoch time: 13003.81499280
Element set: 95
Inclination: 051.6467 deg
RA of node: 202.3603 deg
Eccentricity: 0.0015117
Arg of perigee: 129.2254 deg
Mean anomaly: 231.0158 deg
Mean motion: 15.58889719 rev/day
Decay rate: 3.5382e-04 rev/day^2
Epoch rev: 1417
Checksum: 297
Satellite: TechEdSat
Catalog number: 38854
Epoch time: 13003.86370575
Element set: 104
Inclination: 051.6443 deg
RA of node: 201.1772 deg
Eccentricity: 0.0014481
Arg of perigee: 134.5009 deg
Mean anomaly: 225.7172 deg
Mean motion: 15.61779095 rev/day
Decay rate: 5.4240e-04 rev/day^2
Epoch rev: 1419
Checksum: 277
Satellite: F 1
Catalog number: 38855
Epoch time: 13003.42511455
Element set: 107
Inclination: 051.6447 deg
RA of node: 203.4966 deg
Eccentricity: 0.0015140
Arg of perigee: 134.2643 deg
Mean anomaly: 225.9614 deg
Mean motion: 15.61401578 rev/day
Decay rate: 5.0539e-04 rev/day^2
Epoch rev: 1401
Checksum: 265
Satellite: WeWish
Catalog number: 38856
Epoch time: 13003.77583743
Element set: 122
Inclination: 051.6406 deg
RA of node: 199.8271 deg
Eccentricity: 0.0015337
Arg of perigee: 137.0131 deg
Mean anomaly: 223.2067 deg
Mean motion: 15.67993507 rev/day
Decay rate: 1.07147e-03 rev/day^2
Epoch rev: 1409
Checksum: 294
/EX